Location: Tauranga
(37.6860°S, 176.1670°E)
Time: 10:17:08
(UTC+13:00)

Lacrosse 5 - Pass Details

Date: 24 January 2019
Orbit: 715 x 724 km, 57.0° (Epoch: 16 October)

Event Time Altitude Azimuth Distance (km) Brightness Sun altitude
Rises 21:09:41 0° 220° (SW) 3,161 6.8 -7.0°
Reaches altitude 10° 21:12:07 10° 216° (SW) 2,233 5.7 -7.4°
Maximum altitude 21:17:13 62° 135° (SE) 814 2.1 -8.2°
Enters shadow 21:22:01 11° 54° (NE) 2,112 3.6 -9.0°
